| time (UTC) | temp F | wind direction | speed knots | gust knots | rain 1hr in | rain 24hr in | rain mn in | humidity % | barometer mb |
| 20260510162504 | 80 | 185 | 1.7 | 2.6 | 0.00 | 0.00 | 0.00 | 38 | 1014.6 |
| 20260510162004 | 79 | 214 | 1.7 | 2.6 | 0.00 | 0.00 | 0.00 | 42 | 1014.7 |
| 20260510161004 | 79 | 224 | 0.9 | 2.6 | 0.00 | 0.00 | 0.00 | 40 | 1014.8 |
| 20260510160503 | 79 | 237 | 0.9 | 1.7 | 0.00 | 0.00 | 0.00 | 44 | 1014.8 |
| 20260510160003 | 78 | 112 | 2.6 | 4.3 | 0.00 | 0.00 | 0.00 | 42 | 1014.8 |
| 20260510155503 | 78 | 18 | 0.9 | 2.6 | 0.00 | 0.00 | 0.00 | 41 | 1014.9 |
| 20260510155003 | 78 | 289 | 0.9 | 6.1 | 0.00 | 0.00 | 0.00 | 44 | 1015.1 |
| 20260510154503 | 78 | 273 | 1.7 | 6.1 | 0.00 | 0.00 | 0.00 | 42 | 1015.1 |
| 20260510154004 | 78 | 289 | 1.7 | 2.6 | 0.00 | 0.00 | 0.00 | 43 | 1015.1 |
| 20260510153503 | 78 | 18 | 0.9 | 2.6 | 0.00 | 0.00 | 0.00 | 44 | 1015.2 |
| 20260510153003 | 78 | 179 | 1.7 | 2.6 | 0.00 | 0.00 | 0.00 | 46 | 1015.2 |
| 20260510152004 | 79 | 260 | 0.9 | 1.7 | 0.00 | 0.00 | 0.00 | 48 | 1015.2 |
| 20260510151503 | 79 | 21 | 0.9 | 2.6 | 0.00 | 0.00 | 0.00 | 44 | 1015.1 |
| 20260510151004 | 78 | 294 | 0.0 | 1.7 | 0.00 | 0.00 | 0.00 | 46 | 1015.1 |
| 20260510150504 | 77 | 323 | 1.7 | 2.6 | 0.00 | 0.00 | 0.00 | 48 | 1015.1 |
| 20260510150003 | 76 | 332 | 0.9 | 2.6 | 0.00 | 0.00 | 0.00 | 52 | 1015.0 |
| 20260510145503 | 76 | 167 | 0.9 | 1.7 | 0.00 | 0.00 | 0.00 | 55 | 1015.0 |
| 20260510145004 | 76 | 132 | 0.9 | 2.6 | 0.00 | 0.00 | 0.00 | 55 | 1015.0 |
| 20260510144504 | 75 | 128 | 0.0 | 2.6 | 0.00 | 0.00 | 0.00 | 55 | 1015.1 |
| 20260510144004 | 75 | 63 | 0.9 | 2.6 | 0.00 | 0.00 | 0.00 | 54 | 1015.0 |
| 20260510143503 | 75 | 320 | 0.9 | 4.3 | 0.00 | 0.00 | 0.00 | 57 | 1015.0 |
| 20260510143004 | 74 | 305 | 0.9 | 2.6 | 0.00 | 0.00 | 0.00 | 60 | 1015.0 |
| 20260510142504 | 74 | 274 | 1.7 | 2.6 | 0.00 | 0.00 | 0.00 | 57 | 1015.0 |
| 20260510141504 | 74 | 312 | 0.9 | 1.7 | 0.00 | 0.00 | 0.00 | 60 | 1015.0 |
| 20260510141004 | 73 | 315 | 0.9 | 1.7 | 0.00 | 0.00 | 0.00 | 62 | 1015.0 |
| 20260510140503 | 73 | 17 | 0.9 | 2.6 | 0.00 | 0.00 | 0.00 | 63 | 1015.0 |
| 20260510140003 | 72 | 6 | 0.9 | 1.7 | 0.00 | 0.00 | 0.00 | 63 | 1014.9 |
| 20260510135503 | 71 | 297 | 0.0 | 1.7 | 0.00 | 0.00 | 0.00 | 65 | 1015.0 |
| 20260510135003 | 71 | 317 | 1.7 | 4.3 | 0.00 | 0.00 | 0.00 | 65 | 1015.1 |
| 20260510134504 | 71 | 107 | 0.0 | 2.6 | 0.00 | 0.00 | 0.00 | 66 | 1015.1 |
| 20260510134004 | 71 | 332 | 0.9 | 2.6 | 0.00 | 0.00 | 0.00 | 66 | 1015.3 |
| 20260510133504 | 71 | 353 | 1.7 | 2.6 | 0.00 | 0.00 | 0.00 | 67 | 1015.2 |
| 20260510133003 | 70 | 254 | 0.9 | 2.6 | 0.00 | 0.00 | 0.00 | 68 | 1015.1 |
| 20260510132504 | 70 | 69 | 0.0 | 1.7 | 0.00 | 0.00 | 0.00 | 72 | 1015.0 |
| 20260510132004 | 69 | 131 | 0.0 | 1.7 | 0.00 | 0.00 | 0.00 | 73 | 1015.0 |
| 20260510131503 | 68 | 324 | 0.9 | 2.6 | 0.00 | 0.00 | 0.00 | 73 | 1015.0 |
| 20260510131003 | 68 | 98 | 0.9 | 2.6 | 0.00 | 0.00 | 0.00 | 76 | 1014.9 |
| 20260510130003 | 66 | 335 | 0.9 | 0.9 | 0.00 | 0.00 | 0.00 | 81 | 1014.6 |
| 20260510125005 | 64 | 60 | 0.9 | 1.7 | 0.00 | 0.00 | 0.00 | 92 | 1014.7 |
| 20260510124503 | 63 | 98 | 0.0 | 0.9 | 0.00 | 0.00 | 0.00 | 95 | 1014.5 |
| 20260510124004 | 62 | 101 | 0.9 | 0.9 | 0.00 | 0.00 | 0.00 | 96 | 1014.4 |
| 20260510123503 | 62 | 158 | 0.9 | 0.9 | 0.00 | 0.00 | 0.00 | 96 | 1014.5 |
| 20260510123004 | 61 | 175 | 0.9 | 1.7 | 0.00 | 0.00 | 0.00 | 96 | 1014.5 |
| 20260510122503 | 60 | 103 | 0.9 | 1.7 | 0.00 | 0.00 | 0.00 | 96 | 1014.5 |
| 20260510122004 | 60 | 15 | 0.0 | 0.9 | 0.00 | 0.00 | 0.00 | 96 | 1014.5 |
| 20260510121504 | 60 | 112 | 0.0 | 0.9 | 0.00 | 0.00 | 0.00 | 96 | 1014.5 |
| 20260510120504 | 60 | 122 | 0.0 | 0.0 | 0.00 | 0.00 | 0.00 | 96 | 1014.4 |
| 20260510120003 | 59 | 122 | 0.0 | 0.0 | 0.00 | 0.00 | 0.00 | 96 | 1014.3 |
| 20260510115503 | 59 | 122 | 0.0 | 0.0 | 0.00 | 0.00 | 0.00 | 96 | 1014.3 |
| 20260510115004 | 59 | 122 | 0.0 | 0.9 | 0.00 | 0.00 | 0.00 | 96 | 1014.4 |
| 20260510114504 | 59 | 174 | 0.0 | 0.0 | 0.00 | 0.00 | 0.00 | 96 | 1014.2 |
| 20260510113003 | 59 | 174 | 0.0 | 0.9 | 0.00 | 0.00 | 0.00 | 96 | 1014.0 |
| 20260510112004 | 58 | 161 | 0.9 | 1.7 | 0.00 | 0.00 | 0.00 | 96 | 1013.9 |
| 20260510111504 | 58 | 177 | 0.0 | 0.0 | 0.00 | 0.00 | 0.00 | 96 | 1013.8 |
| 20260510111004 | 58 | 153 | 0.9 | 1.7 | 0.00 | 0.00 | 0.00 | 96 | 1013.8 |
| 20260510110503 | 58 | 161 | 0.0 | 0.9 | 0.00 | 0.00 | 0.00 | 96 | 1013.7 |
| 20260510110003 | 58 | 169 | 0.9 | 1.7 | 0.00 | 0.00 | 0.00 | 96 | 1013.6 |
| 20260510105004 | 58 | 190 | 0.9 | 0.9 | 0.00 | 0.00 | 0.00 | 96 | 1013.5 |
| 20260510104504 | 58 | 193 | 0.0 | 0.9 | 0.00 | 0.00 | 0.00 | 96 | 1013.4 |
| 20260510104004 | 58 | 223 | 0.0 | 0.9 | 0.00 | 0.00 | 0.00 | 96 | 1013.3 |
| 20260510103503 | 58 | 189 | 0.0 | 0.0 | 0.00 | 0.00 | 0.00 | 96 | 1013.1 |
| 20260510103003 | 58 | 189 | 0.0 | 0.0 | 0.00 | 0.00 | 0.00 | 96 | 1013.1 |
| 20260510102504 | 58 | 189 | 0.0 | 0.0 | 0.00 | 0.00 | 0.00 | 96 | 1013.0 |
| 20260510101503 | 58 | 170 | 0.9 | 1.7 | 0.00 | 0.00 | 0.00 | 96 | 1012.9 |
| 20260510101004 | 58 | 185 | 0.9 | 1.7 | 0.00 | 0.00 | 0.00 | 96 | 1012.8 |
| 20260510100503 | 58 | 338 | 0.0 | 0.0 | 0.00 | 0.00 | 0.00 | 96 | 1012.8 |
| 20260510100004 | 58 | 294 | 0.0 | 0.0 | 0.00 | 0.00 | 0.00 | 95 | 1012.7 |
| 20260510095504 | 59 | 294 | 0.0 | 0.0 | 0.00 | 0.00 | 0.00 | 96 | 1012.6 |
| 20260510095004 | 59 | 294 | 0.0 | 0.0 | 0.00 | 0.00 | 0.00 | 96 | 1012.5 |
| 20260510094504 | 59 | 187 | 0.0 | 0.0 | 0.00 | 0.00 | 0.00 | 95 | 1012.5 |
| 20260510093004 | 59 | 122 | 0.0 | 0.9 | 0.00 | 0.00 | 0.00 | 95 | 1012.4 |
| 20260510092503 | 59 | 78 | 0.0 | 0.9 | 0.00 | 0.00 | 0.00 | 95 | 1012.3 |
| 20260510092003 | 59 | 33 | 0.0 | 0.9 | 0.00 | 0.00 | 0.00 | 95 | 1012.3 |
| 20260510091504 | 59 | 41 | 0.0 | 0.9 | 0.00 | 0.00 | 0.00 | 95 | 1012.3 |
| 20260510091004 | 59 | 169 | 0.0 | 0.9 | 0.00 | 0.00 | 0.00 | 95 | 1012.2 |
| 20260510090503 | 59 | 174 | 0.0 | 0.9 | 0.00 | 0.00 | 0.00 | 95 | 1012.3 |
| 20260510090003 | 59 | 172 | 0.0 | 0.9 | 0.00 | 0.00 | 0.00 | 95 | 1012.2 |
| 20260510085504 | 59 | 181 | 0.9 | 0.9 | 0.00 | 0.00 | 0.00 | 95 | 1012.1 |
| 20260510085003 | 59 | 167 | 0.0 | 0.9 | 0.00 | 0.00 | 0.00 | 95 | 1012.0 |
| 20260510084504 | 59 | 137 | 0.0 | 0.9 | 0.00 | 0.00 | 0.00 | 95 | 1011.9 |
| 20260510084004 | 59 | 40 | 0.0 | 0.0 | 0.00 | 0.00 | 0.00 | 95 | 1011.9 |
| 20260510083504 | 60 | 40 | 0.0 | 0.0 | 0.00 | 0.00 | 0.00 | 95 | 1011.9 |
| 20260510083004 | 60 | 40 | 0.0 | 0.0 | 0.00 | 0.00 | 0.00 | 95 | 1011.9 |
| 20260510082004 | 60 | 40 | 0.0 | 0.0 | 0.00 | 0.00 | 0.00 | 94 | 1011.8 |
| 20260510081504 | 60 | 40 | 0.0 | 0.0 | 0.00 | 0.00 | 0.00 | 94 | 1011.8 |
| 20260510081003 | 60 | 40 | 0.0 | 0.0 | 0.00 | 0.00 | 0.00 | 94 | 1011.8 |
| 20260510080504 | 60 | 40 | 0.0 | 0.0 | 0.00 | 0.00 | 0.00 | 94 | 1011.8 |
| 20260510080004 | 60 | 40 | 0.0 | 0.0 | 0.00 | 0.00 | 0.00 | 94 | 1011.9 |
| 20260510075503 | 60 | 40 | 0.0 | 0.0 | 0.00 | 0.00 | 0.00 | 94 | 1011.9 |
| 20260510075004 | 60 | 40 | 0.0 | 0.0 | 0.00 | 0.00 | 0.00 | 94 | 1011.8 |
| 20260510074003 | 60 | 40 | 0.0 | 0.0 | 0.00 | 0.00 | 0.00 | 93 | 1011.7 |
| 20260510073504 | 60 | 40 | 0.0 | 0.0 | 0.00 | 0.00 | 0.00 | 93 | 1011.6 |
| 20260510073004 | 61 | 40 | 0.0 | 0.0 | 0.00 | 0.00 | 0.00 | 93 | 1011.5 |
| 20260510072503 | 61 | 40 | 0.0 | 0.0 | 0.00 | 0.00 | 0.00 | 93 | 1011.6 |
| 20260510071503 | 61 | 165 | 0.0 | 0.0 | 0.00 | 0.00 | 0.00 | 92 | 1011.6 |
| 20260510070503 | 61 | 51 | 0.0 | 0.9 | 0.00 | 0.00 | 0.00 | 92 | 1011.6 |
| 20260510070004 | 61 | 194 | 0.0 | 0.0 | 0.00 | 0.00 | 0.00 | 92 | 1011.7 |
| 20260510065503 | 62 | 194 | 0.9 | 0.9 | 0.00 | 0.00 | 0.00 | 91 | 1011.6 |
| 20260510065004 | 62 | 334 | 0.0 | 0.0 | 0.00 | 0.00 | 0.00 | 91 | 1011.5 |
| 20260510064504 | 62 | 41 | 0.0 | 0.0 | 0.00 | 0.00 | 0.00 | 90 | 1011.5 |
| 20260510064004 | 62 | 41 | 0.0 | 0.0 | 0.00 | 0.00 | 0.00 | 89 | 1011.6 |
| 20260510063503 | 63 | 41 | 0.0 | 0.0 | 0.00 | 0.00 | 0.00 | 89 | 1011.5 |
| 20260510063004 | 63 | 41 | 0.0 | 0.0 | 0.00 | 0.00 | 0.00 | 88 | 1011.4 |
| 20260510062504 | 63 | 20 | 0.0 | 0.0 | 0.00 | 0.00 | 0.00 | 88 | 1011.3 |
| 20260510062003 | 63 | 20 | 0.0 | 0.0 | 0.00 | 0.00 | 0.00 | 88 | 1011.3 |
| 20260510061504 | 63 | 20 | 0.0 | 0.9 | 0.00 | 0.00 | 0.00 | 87 | 1011.4 |
| 20260510061004 | 63 | 343 | 0.0 | 0.9 | 0.00 | 0.00 | 0.00 | 88 | 1011.6 |
| 20260510060504 | 63 | 350 | 0.0 | 0.9 | 0.00 | 0.00 | 0.00 | 88 | 1011.7 |
| 20260510060004 | 63 | 192 | 0.0 | 0.0 | 0.00 | 0.00 | 0.00 | 88 | 1011.8 |
| 20260510055504 | 63 | 156 | 0.9 | 1.7 | 0.00 | 0.00 | 0.00 | 88 | 1011.7 |
| 20260510054504 | 63 | 137 | 0.0 | 0.0 | 0.00 | 0.00 | 0.00 | 89 | 1011.7 |
| 20260510054004 | 63 | 137 | 0.0 | 0.0 | 0.00 | 0.00 | 0.00 | 89 | 1011.8 |
| 20260510053504 | 62 | 137 | 0.0 | 0.0 | 0.00 | 0.00 | 0.00 | 90 | 1011.9 |
| 20260510053004 | 62 | 137 | 0.0 | 1.7 | 0.00 | 0.00 | 0.00 | 91 | 1011.9 |
| 20260510052504 | 62 | 278 | 0.0 | 1.7 | 0.00 | 0.00 | 0.00 | 92 | 1011.9 |
| 20260510052004 | 62 | 281 | 0.0 | 0.0 | 0.00 | 0.00 | 0.00 | 92 | 1012.0 |
| 20260510051503 | 61 | 281 | 0.0 | 0.0 | 0.00 | 0.00 | 0.00 | 92 | 1012.0 |
| 20260510051004 | 61 | 281 | 0.0 | 0.9 | 0.00 | 0.00 | 0.00 | 93 | 1012.0 |
| 20260510050504 | 61 | 109 | 0.0 | 0.9 | 0.00 | 0.00 | 0.00 | 94 | 1012.0 |
| 20260510045503 | 61 | 160 | 0.0 | 0.0 | 0.00 | 0.00 | 0.00 | 94 | 1012.1 |
| 20260510045004 | 60 | 160 | 0.0 | 0.9 | 0.00 | 0.00 | 0.00 | 94 | 1012.2 |
| 20260510044504 | 60 | 182 | 0.0 | 0.0 | 0.00 | 0.00 | 0.00 | 94 | 1012.3 |
| 20260510044004 | 60 | 182 | 0.0 | 0.0 | 0.00 | 0.00 | 0.00 | 94 | 1012.1 |
| 20260510043503 | 60 | 182 | 0.0 | 0.0 | 0.00 | 0.00 | 0.00 | 94 | 1012.1 |
| 20260510043004 | 60 | 182 | 0.0 | 0.0 | 0.00 | 0.00 | 0.00 | 94 | 1012.1 |
| 20260510042504 | 60 | 182 | 0.0 | 0.0 | 0.00 | 0.00 | 0.00 | 94 | 1012.0 |
| 20260510042004 | 60 | 182 | 0.0 | 0.0 | 0.00 | 0.00 | 0.00 | 94 | 1012.1 |
| 20260510041005 | 60 | 182 | 0.0 | 0.0 | 0.00 | 0.00 | 0.00 | 94 | 1012.1 |
| 20260510040504 | 60 | 182 | 0.9 | 0.9 | 0.00 | 0.00 | 0.00 | 94 | 1012.0 |
| 20260510040004 | 60 | 156 | 0.0 | 0.0 | 0.00 | 0.00 | 0.00 | 94 | 1012.0 |
| 20260510035504 | 60 | 156 | 0.0 | 0.9 | 0.00 | 0.00 | 0.00 | 94 | 1011.9 |
| 20260510035004 | 60 | 28 | 0.0 | 0.0 | 0.00 | 0.00 | 0.00 | 94 | 1012.0 |
| 20260510034504 | 60 | 28 | 0.0 | 0.0 | 0.00 | 0.00 | 0.00 | 94 | 1012.0 |
| 20260510034004 | 61 | 28 | 0.0 | 0.9 | 0.00 | 0.00 | 0.00 | 94 | 1012.0 |
| 20260510033503 | 61 | 28 | 0.0 | 0.0 | 0.00 | 0.00 | 0.00 | 94 | 1012.0 |
| 20260510033003 | 61 | 28 | 0.0 | 0.0 | 0.00 | 0.00 | 0.00 | 94 | 1011.9 |
| 20260510032502 | 61 | 28 | 0.0 | 0.0 | 0.00 | 0.00 | 0.00 | 94 | 1011.9 |
| 20260510032003 | 61 | 28 | 0.0 | 0.0 | 0.00 | 0.00 | 0.00 | 94 | 1011.9 |
| 20260510031503 | 60 | 28 | 0.0 | 0.0 | 0.00 | 0.00 | 0.00 | 94 | 1011.9 |
| 20260510031003 | 60 | 28 | 0.0 | 0.9 | 0.00 | 0.00 | 0.00 | 94 | 1011.8 |
| 20260510030502 | 60 | 337 | 0.0 | 0.0 | 0.00 | 0.00 | 0.00 | 94 | 1011.8 |
| 20260510030004 | 60 | 337 | 0.0 | 0.0 | 0.00 | 0.00 | 0.00 | 94 | 1011.8 |
| 20260510025503 | 60 | 337 | 0.0 | 0.0 | 0.00 | 0.00 | 0.00 | 94 | 1011.7 |
| 20260510024503 | 60 | 337 | 0.0 | 0.0 | 0.00 | 0.00 | 0.00 | 94 | 1011.8 |
| 20260510024003 | 61 | 337 | 0.0 | 0.0 | 0.00 | 0.00 | 0.00 | 94 | 1011.8 |
| 20260510023504 | 61 | 337 | 0.0 | 0.0 | 0.00 | 0.00 | 0.00 | 94 | 1011.8 |
| 20260510023003 | 61 | 337 | 0.0 | 0.0 | 0.00 | 0.00 | 0.00 | 93 | 1011.8 |
| 20260510022502 | 61 | 337 | 0.0 | 0.9 | 0.00 | 0.00 | 0.00 | 93 | 1011.7 |
| 20260510021502 | 61 | 310 | 0.0 | 0.9 | 0.00 | 0.00 | 0.00 | 93 | 1011.6 |
| 20260510021003 | 61 | 300 | 0.0 | 0.9 | 0.00 | 0.00 | 0.00 | 92 | 1011.7 |
| 20260510020503 | 61 | 270 | 0.0 | 0.9 | 0.00 | 0.00 | 0.00 | 92 | 1011.7 |
| 20260510020002 | 61 | 295 | 0.0 | 0.9 | 0.00 | 0.00 | 0.00 | 92 | 1011.6 |
| 20260510015002 | 62 | 256 | 0.0 | 0.0 | 0.00 | 0.00 | 0.00 | 91 | 1011.6 |
| 20260510014503 | 62 | 287 | 0.0 | 0.0 | 0.00 | 0.00 | 0.00 | 91 | 1011.5 |
| 20260510014003 | 62 | 290 | 0.0 | 0.9 | 0.00 | 0.00 | 0.00 | 90 | 1011.4 |
| 20260510013503 | 62 | 279 | 0.0 | 0.9 | 0.00 | 0.00 | 0.00 | 90 | 1011.3 |
| 20260510013002 | 62 | 290 | 0.0 | 0.9 | 0.00 | 0.00 | 0.00 | 89 | 1011.2 |
| 20260510012503 | 63 | 341 | 0.0 | 0.0 | 0.00 | 0.00 | 0.00 | 88 | 1011.1 |
| 20260510012002 | 63 | 326 | 0.0 | 0.0 | 0.00 | 0.00 | 0.00 | 88 | 1011.0 |
| 20260510011503 | 64 | 294 | 0.0 | 0.0 | 0.00 | 0.00 | 0.00 | 87 | 1010.9 |
| 20260510011003 | 64 | 4 | 0.0 | 0.9 | 0.00 | 0.00 | 0.00 | 86 | 1010.9 |
| 20260510010502 | 64 | 258 | 0.0 | 0.9 | 0.00 | 0.00 | 0.00 | 86 | 1010.8 |
| 20260510010003 | 65 | 263 | 0.0 | 0.0 | 0.00 | 0.00 | 0.00 | 85 | 1010.8 |
| 20260510005502 | 65 | 213 | 0.0 | 0.9 | 0.00 | 0.00 | 0.00 | 84 | 1010.7 |
| 20260510005003 | 65 | 271 | 0.0 | 0.0 | 0.00 | 0.00 | 0.00 | 84 | 1010.8 |
| 20260510003503 | 66 | 266 | 0.0 | 0.9 | 0.00 | 0.00 | 0.00 | 82 | 1010.7 |
| 20260510003003 | 67 | 35 | 0.0 | 0.9 | 0.00 | 0.00 | 0.00 | 81 | 1010.8 |
| 20260510002502 | 67 | 39 | 0.0 | 0.9 | 0.00 | 0.00 | 0.00 | 80 | 1010.8 |
| 20260510002003 | 67 | 192 | 0.0 | 0.9 | 0.00 | 0.00 | 0.00 | 79 | 1010.8 |
| 20260510001502 | 67 | 357 | 0.0 | 0.9 | 0.00 | 0.00 | 0.00 | 78 | 1010.8 |
| 20260510001003 | 68 | 304 | 0.0 | 0.9 | 0.00 | 0.00 | 0.00 | 78 | 1010.7 |
| 20260510000503 | 68 | 337 | 0.0 | 0.9 | 0.00 | 0.00 | 0.00 | 77 | 1010.5 |
| 20260510000003 | 68 | 304 | 0.0 | 0.9 | 0.00 | 0.00 | 0.00 | 77 | 1010.5 |
| 20260509235503 | 69 | 25 | 0.0 | 0.9 | 0.00 | 0.00 | 0.00 | 76 | 1010.5 |
| 20260509234502 | 69 | 234 | 0.0 | 0.9 | 0.00 | 0.00 | 0.00 | 75 | 1010.2 |
| 20260509234003 | 70 | 339 | 0.0 | 0.9 | 0.00 | 0.00 | 0.00 | 73 | 1010.0 |
| 20260509233003 | 70 | 184 | 0.0 | 0.0 | 0.00 | 0.00 | 0.00 | 72 | 1010.2 |
| 20260509232502 | 71 | 185 | 0.0 | 0.9 | 0.00 | 0.00 | 0.00 | 72 | 1010.2 |
| 20260509232003 | 71 | 314 | 0.0 | 0.9 | 0.00 | 0.00 | 0.00 | 71 | 1010.1 |
| 20260509231503 | 71 | 165 | 0.0 | 0.9 | 0.00 | 0.00 | 0.00 | 71 | 1010.0 |
| 20260509231003 | 71 | 281 | 0.0 | 0.9 | 0.00 | 0.00 | 0.00 | 70 | 1010.0 |
| 20260509230503 | 71 | 323 | 0.0 | 0.9 | 0.00 | 0.00 | 0.00 | 70 | 1010.0 |
| 20260509230003 | 71 | 204 | 0.9 | 1.7 | 0.00 | 0.00 | 0.00 | 70 | 1010.0 |
| 20260509225503 | 71 | 141 | 0.9 | 2.6 | 0.00 | 0.00 | 0.00 | 69 | 1009.8 |
| 20260509224503 | 72 | 195 | 0.9 | 1.7 | 0.00 | 0.00 | 0.00 | 69 | 1009.8 |
| 20260509224004 | 72 | 209 | 0.0 | 2.6 | 0.00 | 0.00 | 0.00 | 68 | 1009.8 |
| 20260509223503 | 72 | 173 | 0.9 | 2.6 | 0.00 | 0.00 | 0.00 | 68 | 1009.9 |
| 20260509223003 | 72 | 124 | 0.9 | 2.6 | 0.00 | 0.00 | 0.00 | 68 | 1009.9 |
| 20260509222503 | 72 | 219 | 0.0 | 2.6 | 0.00 | 0.00 | 0.00 | 68 | 1009.9 |
| 20260509222003 | 72 | 176 | 0.0 | 1.7 | 0.00 | 0.00 | 0.00 | 68 | 1010.0 |
| 20260509221503 | 72 | 177 | 0.9 | 1.7 | 0.00 | 0.00 | 0.00 | 67 | 1009.9 |
| 20260509221004 | 72 | 142 | 0.9 | 5.2 | 0.00 | 0.00 | 0.00 | 67 | 1010.0 |
| 20260509220503 | 72 | 352 | 0.9 | 1.7 | 0.00 | 0.00 | 0.00 | 67 | 1010.0 |
| 20260509215503 | 72 | 241 | 0.9 | 5.2 | 0.00 | 0.00 | 0.00 | 66 | 1009.9 |
| 20260509215003 | 72 | 310 | 0.9 | 4.3 | 0.00 | 0.00 | 0.00 | 66 | 1009.9 |
| 20260509214503 | 72 | 164 | 1.7 | 2.6 | 0.00 | 0.00 | 0.00 | 66 | 1009.9 |
| 20260509214004 | 72 | 177 | 0.9 | 2.6 | 0.00 | 0.00 | 0.00 | 66 | 1009.8 |
| 20260509213503 | 72 | 177 | 1.7 | 4.3 | 0.00 | 0.00 | 0.00 | 65 | 1009.9 |
| 20260509213003 | 72 | 133 | 0.9 | 6.1 | 0.00 | 0.00 | 0.00 | 66 | 1009.6 |
| 20260509212504 | 72 | 303 | 1.7 | 4.3 | 0.00 | 0.00 | 0.00 | 66 | 1009.6 |
| 20260509211503 | 72 | 270 | 0.9 | 2.6 | 0.00 | 0.00 | 0.00 | 68 | 1009.5 |
| 20260509211003 | 72 | 180 | 0.9 | 2.6 | 0.00 | 0.00 | 0.00 | 67 | 1009.5 |
| 20260509210503 | 72 | 201 | 0.0 | 1.7 | 0.00 | 0.00 | 0.00 | 67 | 1009.5 |
| 20260509205503 | 72 | 163 | 0.9 | 2.6 | 0.00 | 0.00 | 0.00 | 67 | 1009.7 |
| 20260509204502 | 72 | 139 | 0.9 | 4.3 | 0.00 | 0.00 | 0.00 | 66 | 1009.7 |
| 20260509204003 | 72 | 250 | 0.9 | 2.6 | 0.00 | 0.00 | 0.00 | 66 | 1009.6 |
| 20260509203504 | 71 | 308 | 2.6 | 5.2 | 0.00 | 0.00 | 0.00 | 67 | 1009.6 |
| 20260509203003 | 72 | 200 | 1.7 | 2.6 | 0.00 | 0.00 | 0.00 | 67 | 1009.8 |
| 20260509202502 | 72 | 173 | 1.7 | 4.3 | 0.00 | 0.00 | 0.00 | 65 | 1009.7 |
| 20260509201503 | 72 | 222 | 0.9 | 1.7 | 0.00 | 0.00 | 0.00 | 67 | 1009.7 |
| 20260509201003 | 71 | 193 | 0.9 | 2.6 | 0.00 | 0.00 | 0.00 | 67 | 1009.6 |
| 20260509200003 | 71 | 181 | 1.7 | 2.6 | 0.00 | 0.00 | 0.00 | 66 | 1009.9 |
| 20260509195503 | 72 | 172 | 0.0 | 1.7 | 0.00 | 0.00 | 0.00 | 64 | 1010.0 |
| 20260509194503 | 71 | 268 | 0.9 | 1.7 | 0.00 | 0.00 | 0.00 | 63 | 1010.1 |
| 20260509194003 | 71 | 156 | 0.9 | 1.7 | 0.00 | 0.00 | 0.00 | 64 | 1010.1 |
| 20260509193502 | 71 | 194 | 1.7 | 4.3 | 0.00 | 0.00 | 0.00 | 62 | 1010.1 |
| 20260509192503 | 72 | 189 | 0.9 | 4.3 | 0.00 | 0.00 | 0.00 | 62 | 1010.4 |
| 20260509192003 | 72 | 271 | 0.9 | 2.6 | 0.00 | 0.00 | 0.00 | 61 | 1010.4 |
| 20260509191503 | 72 | 165 | 1.7 | 5.2 | 0.00 | 0.00 | 0.00 | 60 | 1010.3 |
| 20260509191003 | 73 | 325 | 1.7 | 5.2 | 0.00 | 0.00 | 0.00 | 60 | 1010.1 |
| 20260509190502 | 72 | 130 | 0.9 | 1.7 | 0.00 | 0.00 | 0.00 | 58 | 1010.2 |
| 20260509185502 | 73 | 177 | 0.9 | 2.6 | 0.00 | 0.00 | 0.00 | 58 | 1010.4 |
| 20260509185003 | 73 | 180 | 1.7 | 2.6 | 0.00 | 0.00 | 0.00 | 58 | 1010.3 |
| 20260509184003 | 74 | 157 | 0.9 | 4.3 | 0.00 | 0.00 | 0.00 | 57 | 1010.2 |
| 20260509183503 | 74 | 141 | 1.7 | 4.3 | 0.00 | 0.00 | 0.00 | 54 | 1010.2 |
| 20260509183002 | 75 | 142 | 0.9 | 4.3 | 0.00 | 0.00 | 0.00 | 55 | 1010.1 |
| 20260509182503 | 74 | 236 | 1.7 | 5.2 | 0.00 | 0.00 | 0.00 | 54 | 1010.1 |
| 20260509182003 | 74 | 270 | 0.9 | 2.6 | 0.00 | 0.00 | 0.00 | 56 | 1010.2 |
| 20260509181503 | 74 | 237 | 1.7 | 5.2 | 0.00 | 0.00 | 0.00 | 56 | 1010.4 |
| 20260509180503 | 73 | 213 | 0.9 | 7.8 | 0.00 | 0.00 | 0.00 | 54 | 1010.4 |
| 20260509180002 | 72 | 206 | 1.7 | 5.2 | 0.00 | 0.00 | 0.00 | 57 | 1010.7 |
| 20260509175502 | 72 | 168 | 2.6 | 5.2 | 0.00 | 0.00 | 0.00 | 55 | 1010.9 |
| 20260509175003 | 72 | 207 | 1.7 | 4.3 | 0.00 | 0.00 | 0.00 | 56 | 1010.9 |
| 20260509174003 | 73 | 236 | 1.7 | 4.3 | 0.00 | 0.00 | 0.00 | 55 | 1010.9 |
| 20260509173503 | 73 | 259 | 0.9 | 2.6 | 0.00 | 0.00 | 0.00 | 57 | 1010.8 |
| 20260509173003 | 72 | 201 | 0.9 | 2.6 | 0.00 | 0.00 | 0.00 | 56 | 1011.0 |
| 20260509172002 | 72 | 226 | 0.9 | 2.6 | 0.00 | 0.00 | 0.00 | 56 | 1011.2 |
| 20260509171003 | 72 | 118 | 2.6 | 4.3 | 0.00 | 0.00 | 0.00 | 56 | 1011.2 |
| 20260509170504 | 72 | 168 | 1.7 | 6.1 | 0.00 | 0.00 | 0.00 | 57 | 1011.4 |
| 20260509170002 | 72 | 198 | 1.7 | 2.6 | 0.00 | 0.00 | 0.00 | 58 | 1011.5 |
| 20260509165003 | 71 | 254 | 0.9 | 7.0 | 0.00 | 0.00 | 0.00 | 58 | 1011.5 |
| 20260509164504 | 71 | 231 | 1.7 | 7.8 | 0.00 | 0.00 | 0.00 | 58 | 1011.7 |
| 20260509164003 | 71 | 228 | 1.7 | 6.1 | 0.00 | 0.00 | 0.00 | 59 | 1011.6 |
| 20260509163503 | 72 | 194 | 1.7 | 5.2 | 0.00 | 0.00 | 0.00 | 58 | 1011.7 |
| 20260509163003 | 72 | 126 | 2.6 | 5.2 | 0.00 | 0.00 | 0.00 | 56 | 1011.4 |